N1IJV-10 Weather Reports


time (UTC)temp
F
wind
direction
speed
knots
gust
knots
rain 1hr
in
rain 24hr
in
rain mn
in
humidity
%
barometer
mb
20260507115204 36 95 0.0 0.0 0.00 0.00 0.00 89 1014.6
20260507114700 36 98 0.0 0.0 0.00 0.00 0.00 90 1014.9
20260507114157 35 97 0.0 0.0 0.00 0.00 0.00 92 1014.6
20260507113655 34 98 0.0 0.0 0.00 0.00 0.00 93 1014.8
20260507113151 33 97 0.0 0.0 0.00 0.00 0.00 95 1014.7
20260507112649 32 99 0.0 0.0 0.00 0.00 0.00 95 1014.7
20260507112145 32 97 0.0 0.0 0.00 0.00 0.00 95 1014.8
20260507111643 32 97 0.0 0.0 0.00 0.00 0.00 95 1014.6
20260507111139 32 97 0.0 0.0 0.00 0.00 0.00 94 1014.6
20260507110636 32 97 0.0 0.0 0.00 0.00 0.00 94 1014.8
20260507110133 32 98 0.0 0.0 0.00 0.00 0.00 94 1014.7
20260507105630 32 98 0.0 0.0 0.00 0.00 0.00 94 1014.6
20260507105125 32 99 0.0 0.0 0.00 0.00 0.00 94 1014.7
20260507104623 32 99 0.0 0.0 0.00 0.00 0.00 93 1014.7
20260507104119 32 99 0.0 0.0 0.00 0.00 0.00 93 1014.7
20260507103615 32 99 0.0 0.0 0.00 0.00 0.00 94 1014.5
20260507103112 32 97 0.0 0.0 0.00 0.00 0.00 94 1014.8
20260507102609 32 96 0.0 0.0 0.00 0.00 0.00 94 1014.7
20260507102105 32 93 0.0 0.0 0.00 0.00 0.00 94 1014.6
20260507101601 32 91 0.0 0.0 0.00 0.00 0.00 94 1014.8
20260507101057 32 97 0.0 0.0 0.00 0.00 0.00 94 1014.8
20260507100554 32 99 0.0 0.0 0.00 0.00 0.00 94 1014.6
20260507100053 32 97 0.0 0.0 0.00 0.00 0.00 94 1014.5
20260507095550 32 97 0.0 0.0 0.00 0.00 0.00 94 1014.7
20260507095047 31 97 0.0 0.0 0.00 0.00 0.00 94 1014.4
20260507094543 31 99 0.0 0.0 0.00 0.00 0.00 94 1014.9
20260507094040 32 100 0.0 0.0 0.00 0.00 0.00 94 1014.8
20260507093537 32 102 0.0 0.0 0.00 0.00 0.00 94 1014.8
20260507093036 32 99 0.0 0.0 0.00 0.00 0.00 94 1014.7
20260507092532 32 99 0.0 0.0 0.00 0.00 0.00 94 1014.7
20260507092029 32 99 0.0 0.0 0.00 0.00 0.00 94 1014.8
20260507091526 32 102 0.0 0.0 0.00 0.00 0.00 94 1014.6
20260507091022 32 102 0.0 0.0 0.00 0.00 0.00 94 1014.6
20260507090517 32 100 0.0 0.0 0.00 0.00 0.00 94 1014.8
20260507090015 32 98 0.0 0.0 0.00 0.00 0.00 94 1014.8
20260507085512 32 101 0.0 0.0 0.00 0.00 0.00 94 1014.9
20260507085008 32 101 0.0 0.0 0.00 0.00 0.00 94 1014.8
20260507084505 33 100 0.0 0.0 0.00 0.00 0.00 94 1014.9
20260507084002 33 99 0.0 0.0 0.00 0.00 0.00 94 1014.6
20260507083458 33 99 0.0 0.0 0.00 0.00 0.00 94 1014.7
20260507082955 33 99 0.0 0.0 0.00 0.00 0.00 94 1014.6
20260507082451 33 97 0.0 0.0 0.00 0.00 0.00 94 1014.6
20260507081948 33 97 0.0 0.0 0.00 0.00 0.00 94 1014.7
20260507081444 33 98 0.0 0.0 0.00 0.00 0.00 94 1014.6
20260507080941 33 97 0.0 0.0 0.00 0.00 0.00 94 1014.6
20260507080437 33 95 0.0 0.0 0.00 0.00 0.00 94 1014.7
20260507075932 33 95 0.0 0.0 0.00 0.00 0.00 94 1014.7
20260507075429 33 95 0.0 0.0 0.00 0.00 0.00 94 1014.7
20260507074926 33 97 0.0 0.0 0.00 0.00 0.00 93 1014.8
20260507074422 33 97 0.0 0.0 0.00 0.00 0.00 93 1014.8
20260507073920 33 98 0.0 0.0 0.00 0.00 0.00 93 1014.7
20260507073416 33 98 0.0 0.0 0.00 0.00 0.00 94 1014.7
20260507072913 33 97 0.0 0.0 0.00 0.00 0.00 94 1015.0
20260507072411 33 97 0.0 0.0 0.00 0.00 0.00 94 1014.8
20260507071908 33 97 0.0 0.0 0.00 0.00 0.00 93 1014.8
20260507071405 33 97 0.0 0.0 0.00 0.00 0.00 93 1014.9
20260507070901 33 97 0.0 0.0 0.00 0.00 0.00 93 1014.9
20260507070359 34 98 0.0 0.0 0.00 0.00 0.00 93 1015.0
20260507065856 34 100 0.0 0.0 0.00 0.00 0.00 93 1015.1
20260507065352 34 101 0.0 0.0 0.00 0.00 0.00 93 1015.4
20260507064849 34 99 0.0 0.0 0.00 0.00 0.00 92 1015.2
20260507064348 34 99 0.0 0.0 0.00 0.00 0.00 92 1015.0
20260507063845 34 99 0.0 0.0 0.00 0.00 0.00 91 1014.9
20260507063342 34 99 0.0 0.0 0.00 0.00 0.00 91 1015.2
20260507062839 34 98 0.0 0.0 0.00 0.00 0.00 91 1014.8
20260507062336 34 97 0.0 0.0 0.00 0.00 0.00 90 1015.1
20260507061834 34 98 0.0 0.0 0.00 0.00 0.00 90 1015.2
20260507061331 34 98 0.0 0.0 0.00 0.00 0.00 89 1015.3
20260507060830 35 98 0.0 0.0 0.00 0.00 0.00 89 1015.2
20260507060326 35 98 0.0 0.0 0.00 0.00 0.00 89 1015.2
20260507055823 35 97 0.0 0.0 0.00 0.00 0.00 88 1015.1
20260507055318 35 97 0.0 0.0 0.00 0.00 0.00 87 1015.2
20260507054815 35 98 0.0 0.0 0.00 0.00 0.00 86 1015.3
20260507054311 35 100 0.0 0.0 0.00 0.00 0.00 87 1015.5
20260507053808 35 100 0.0 0.0 0.00 0.00 0.00 86 1015.2
20260507053306 35 99 0.0 0.0 0.00 0.00 0.00 85 1015.1
20260507052805 35 99 0.0 0.0 0.00 0.00 0.00 85 1015.2
20260507052301 35 100 0.0 0.0 0.00 0.00 0.00 85 1015.1
20260507051759 36 100 0.0 0.0 0.00 0.00 0.00 85 1015.1
20260507051256 36 100 0.0 0.0 0.00 0.00 0.00 85 1015.0
20260507050753 36 102 0.0 0.0 0.00 0.00 0.00 85 1015.3
20260507050249 37 102 0.0 0.0 0.00 0.00 0.00 85 1015.4
20260507045746 37 99 0.0 0.0 0.00 0.00 0.00 85 1015.2
20260507045242 37 97 0.0 0.0 0.00 0.00 0.00 85 1015.1
20260507044740 37 97 0.0 0.0 0.00 0.00 0.00 84 1015.2
20260507044236 37 98 0.0 0.0 0.00 0.00 0.00 83 1015.1
20260507043732 37 97 0.0 0.0 0.00 0.00 0.00 84 1015.2
20260507043229 37 97 0.0 0.0 0.00 0.00 0.00 83 1015.1
20260507042725 37 97 0.0 0.0 0.00 0.00 0.00 80 1014.9
20260507042220 37 99 0.0 0.0 0.00 0.00 0.00 79 1015.1
20260507041718 37 99 0.0 0.0 0.00 0.00 0.00 78 1015.1
20260507041215 37 99 0.0 0.0 0.00 0.00 0.00 77 1015.3
20260507040712 38 99 0.0 0.0 0.00 0.00 0.00 75 1015.0
20260507040207 39 99 0.0 0.0 0.00 0.00 0.00 74 1015.3
20260507035704 39 99 0.0 0.0 0.00 0.00 0.00 73 1015.2
20260507035159 39 101 0.0 0.0 0.00 0.00 0.00 71 1015.2
20260507034656 39 100 0.0 0.0 0.00 0.00 0.00 71 1015.1
20260507034154 39 100 0.0 0.0 0.00 0.00 0.00 71 1015.1
20260507033652 40 100 0.0 0.0 0.00 0.00 0.00 70 1014.9
20260507033149 40 99 0.0 0.0 0.00 0.00 0.00 69 1015.2
20260507032647 40 99 0.0 0.0 0.00 0.00 0.00 70 1015.3
20260507032142 40 96 0.0 0.0 0.00 0.00 0.00 69 1015.3
20260507031639 40 99 0.0 0.0 0.00 0.00 0.00 68 1015.3
20260507031136 40 99 0.0 0.0 0.00 0.00 0.00 68 1015.2
20260507030633 41 99 0.0 0.0 0.00 0.00 0.00 67 1015.2
20260507030131 41 99 0.0 0.0 0.00 0.00 0.00 66 1015.2
20260507025627 41 99 0.0 0.0 0.00 0.00 0.00 65 1015.0
20260507025124 41 99 0.0 0.0 0.00 0.00 0.00 65 1015.2
20260507024622 42 99 0.0 0.0 0.00 0.00 0.00 65 1014.9
20260507024119 42 105 0.0 0.0 0.00 0.00 0.00 65 1015.1
20260507023615 42 105 0.0 0.0 0.00 0.00 0.00 64 1014.9
20260507023112 42 99 0.0 0.0 0.00 0.00 0.00 64 1014.9
20260507022609 42 111 0.0 0.0 0.00 0.00 0.00 65 1014.9
20260507022105 42 95 0.0 0.0 0.00 0.00 0.00 64 1015.0
20260507021601 42 95 0.0 0.0 0.00 0.00 0.00 64 1014.6
20260507021057 43 93 0.0 0.0 0.00 0.00 0.00 64 1014.7
20260507020556 44 89 0.0 0.0 0.00 0.00 0.00 64 1014.6
20260507020051 44 98 0.0 0.0 0.00 0.00 0.00 62 1014.4
20260507015550 45 90 0.0 0.0 0.00 0.00 0.00 60 1014.6
20260507015047 45 84 0.0 0.9 0.00 0.00 0.00 59 1014.4
20260507014543 46 70 0.0 0.9 0.00 0.00 0.00 57 1014.3
20260507014039 46 66 0.9 0.9 0.00 0.00 0.00 55 1014.4
20260507013536 46 84 0.9 0.9 0.00 0.00 0.00 55 1014.4
20260507013034 47 108 0.0 1.7 0.00 0.00 0.00 53 1014.4
20260507012531 47 50 1.7 1.7 0.00 0.00 0.00 55 1014.3
20260507012026 47 69 1.7 2.6 0.00 0.00 0.00 53 1014.1
20260507011524 47 338 2.6 4.3 0.00 0.00 0.00 52 1014.4
20260507011020 47 154 0.9 2.6 0.00 0.00 0.00 53 1014.6
20260507010515 48 115 1.7 2.6 0.00 0.00 0.00 53 1014.4
20260507010012 48 69 1.7 2.6 0.00 0.00 0.00 52 1014.3
20260507005509 48 242 2.6 5.2 0.00 0.00 0.00 52 1014.1
20260507005005 48 63 2.6 4.3 0.00 0.00 0.00 51 1014.3
20260507004502 48 296 0.9 1.7 0.00 0.00 0.00 52 1014.2
20260507004000 49 112 0.9 1.7 0.00 0.00 0.00 51 1014.1
20260507003455 49 359 2.6 5.2 0.00 0.00 0.00 48 1014.1
20260507002950 49 258 3.5 4.3 0.00 0.00 0.00 50 1014.1
20260507002447 50 334 4.3 6.1 0.00 0.00 0.00 47 1014.0
20260507001944 50 314 2.6 5.2 0.00 0.00 0.00 48 1014.2
20260507001440 50 81 2.6 8.7 0.00 0.00 0.00 48 1013.9
20260507000938 50 0 3.5 6.1 0.00 0.00 0.00 48 1013.9
20260507000435 50 11 3.5 6.1 0.00 0.00 0.00 48 1013.8
20260506235929 50 7 2.6 7.0 0.00 0.00 0.00 49 1013.9
20260506235427 50 337 3.5 5.2 0.00 0.00 0.00 49 1013.8
20260506234921 51 262 2.6 5.2 0.00 0.00 0.00 48 1013.8
20260506234420 51 273 3.5 5.2 0.00 0.00 0.00 48 1013.8
20260506233917 52 41 2.6 8.7 0.00 0.00 0.00 47 1013.7
20260506233414 52 18 3.5 7.0 0.00 0.00 0.00 51 1013.5
20260506232910 52 270 2.6 4.3 0.00 0.00 0.00 49 1013.6
20260506232406 52 288 2.6 5.2 0.00 0.00 0.00 48 1013.3
20260506231902 52 339 1.7 1.7 0.00 0.00 0.00 49 1013.5
20260506231400 52 189 2.6 4.3 0.00 0.00 0.00 48 1013.5
20260506230857 53 261 2.6 6.1 0.00 0.00 0.00 48 1013.5
20260506230354 53 275 3.5 5.2 0.00 0.00 0.00 47 1013.6
20260506225850 53 264 3.5 4.3 0.00 0.00 0.00 47 1013.2
20260506225348 53 78 1.7 6.1 0.00 0.00 0.00 48 1013.1
20260506224844 53 63 2.6 8.7 0.00 0.00 0.00 46 1013.1
20260506224342 53 273 1.7 2.6 0.00 0.00 0.00 50 1013.5
20260506223838 53 269 6.1 7.0 0.00 0.00 0.00 47 1013.3
20260506223333 53 52 2.6 2.6 0.00 0.00 0.00 49 1013.0
20260506222830 53 59 0.9 6.1 0.00 0.00 0.00 48 1012.9
20260506222326 53 359 4.3 6.1 0.00 0.00 0.00 46 1013.1
20260506221819 53 299 4.3 5.2 0.00 0.00 0.00 47 1013.1
20260506221316 54 7 4.3 7.0 0.00 0.00 0.00 48 1013.1
20260506220813 55 170 0.9 7.0 0.00 0.00 0.00 46 1013.3
20260506220308 55 352 2.6 4.3 0.00 0.00 0.00 44 1012.7
20260506215805 54 11 4.3 11.3 0.00 0.00 0.00 45 1012.9
20260506215301 54 342 1.7 6.1 0.00 0.00 0.00 45 1012.9
20260506214757 54 284 3.5 5.2 0.00 0.00 0.00 46 1013.0
20260506214254 56 277 3.5 5.2 0.00 0.00 0.00 44 1013.0
20260506213752 56 355 5.2 7.0 0.00 0.00 0.00 44 1012.8
20260506213249 56 356 3.5 5.2 0.00 0.00 0.00 45 1012.8
20260506212746 57 268 2.6 4.3 0.00 0.00 0.00 46 1012.8
20260506212242 57 335 2.6 5.2 0.00 0.00 0.00 43 1012.7
20260506211737 56 276 3.5 5.2 0.00 0.00 0.00 44 1012.9
20260506211234 56 315 5.2 6.1 0.00 0.00 0.00 46 1012.6
20260506210731 54 357 1.7 4.3 0.00 0.00 0.00 49 1012.8
20260506210228 56 244 2.6 7.0 0.00 0.00 0.00 46 1012.7
20260506205725 58 91 1.7 5.2 0.00 0.00 0.00 45 1012.7
20260506205220 59 266 0.9 7.0 0.00 0.00 0.00 46 1012.6
20260506204718 59 145 6.1 7.8 0.00 0.00 0.00 40 1012.9
20260506204215 58 329 3.5 5.2 0.00 0.00 0.00 42 1012.7
20260506203713 56 269 3.5 5.2 0.00 0.00 0.00 42 1012.8
20260506203210 56 308 2.6 5.2 0.00 0.00 0.00 46 1012.8
20260506202707 58 271 1.7 4.3 0.00 0.00 0.00 46 1012.8
20260506202203 58 107 4.3 7.0 0.00 0.00 0.00 40 1013.0
20260506201701 57 123 2.6 4.3 0.00 0.00 0.00 39 1012.7
20260506201156 57 205 3.5 7.8 0.00 0.00 0.00 38 1013.0
20260506200654 56 163 0.9 1.7 0.00 0.00 0.00 44 1013.0
20260506200150 58 6 0.9 2.6 0.00 0.00 0.00 41 1013.1
20260506195647 58 287 5.2 6.1 0.00 0.00 0.00 40 1013.3
20260506195143 58 104 1.7 2.6 0.00 0.00 0.00 41 1013.2
20260506194641 57 277 3.5 6.1 0.00 0.00 0.00 44 1013.2
20260506194137 59 274 2.6 6.1 0.00 0.00 0.00 38 1013.2
20260506193635 58 142 1.7 4.3 0.00 0.00 0.00 44 1013.3
20260506193132 58 50 1.7 9.6 0.00 0.00 0.00 38 1013.2
20260506192628 58 358 2.6 4.3 0.00 0.00 0.00 41 1013.1
20260506192124 57 307 2.6 5.2 0.00 0.00 0.00 41 1013.3
20260506191621 58 260 2.6 6.1 0.00 0.00 0.00 45 1013.1
20260506191117 57 134 1.7 5.2 0.00 0.00 0.00 40 1013.1
20260506190615 57 346 3.5 5.2 0.00 0.00 0.00 45 1013.3
20260506190112 56 251 1.7 4.3 0.00 0.00 0.00 43 1013.1
20260506185609 55 120 0.9 4.3 0.00 0.00 0.00 44 1013.0
20260506185105 54 73 1.7 5.2 0.00 0.00 0.00 44 1013.1
20260506184602 56 92 1.7 4.3 0.00 0.00 0.00 42 1013.4
20260506184100 56 181 0.9 2.6 0.00 0.00 0.00 46 1013.3
20260506183556 55 46 1.7 2.6 0.00 0.00 0.00 44 1013.2
20260506183052 55 25 1.7 2.6 0.00 0.00 0.00 43 1013.3
20260506182550 53 298 2.6 5.2 0.00 0.00 0.00 45 1013.1
20260506182047 54 9 3.5 4.3 0.00 0.00 0.00 45 1013.4
20260506181545 55 348 2.6 5.2 0.00 0.00 0.00 44 1013.3
20260506181041 55 288 2.6 2.6 0.00 0.00 0.00 45 1013.1
20260506180538 53 75 0.9 1.7 0.00 0.00 0.00 43 1013.0
20260506180035 54 172 2.6 4.3 0.00 0.00 0.00 44 1013.1
20260506175531 54 137 0.9 5.2 0.00 0.00 0.00 48 1013.4
20260506175028 54 302 1.7 2.6 0.00 0.00 0.00 44 1013.3
20260506174527 54 358 2.6 2.6 0.00 0.00 0.00 46 1013.4
20260506174022 54 247 0.9 1.7 0.00 0.00 0.00 46 1013.4
20260506173520 53 268 1.7 2.6 0.00 0.00 0.00 46 1013.5
20260506173017 54 285 1.7 2.6 0.00 0.00 0.00 50 1013.6
20260506172514 54 314 1.7 4.3 0.00 0.00 0.00 46 1013.5
20260506172010 54 356 3.5 5.2 0.00 0.00 0.00 43 1013.5
20260506171508 54 65 2.6 5.2 0.00 0.00 0.00 45 1013.7
20260506171005 55 119 0.9 1.7 0.00 0.00 0.00 43 1013.4
20260506170501 54 33 1.7 2.6 0.00 0.00 0.00 45 1013.5
20260506165954 54 323 2.6 5.2 0.00 0.00 0.00 46 1013.7
20260506165452 54 7 1.7 2.6 0.00 0.00 0.00 44 1013.7
20260506164942 56 271 4.3 5.2 0.00 0.00 0.00 42 1013.7
20260506164439 55 330 1.7 6.1 0.00 0.00 0.00 45 1013.6
20260506163937 53 78 2.6 2.6 0.00 0.00 0.00 47 1013.4
20260506163432 53 293 3.5 4.3 0.00 0.00 0.00 46 1013.4
20260506162927 54 350 1.7 2.6 0.00 0.00 0.00 46 1013.5
20260506162424 53 268 2.6 4.3 0.00 0.00 0.00 45 1013.5
20260506161916 54 52 1.7 5.2 0.00 0.00 0.00 45 1013.6
20260506161414 54 132 1.7 5.2 0.00 0.00 0.00 50 1013.4
20260506160906 54 269 2.6 5.2 0.00 0.00 0.00 44 1013.5
20260506160402 54 108 0.9 2.6 0.00 0.00 0.00 51 1013.4
20260506155900 53 325 3.5 4.3 0.00 0.00 0.00 46 1013.5
20260506155356 54 266 2.6 6.1 0.00 0.00 0.00 48 1013.5
20260506153514 54 205 2.6 4.3 0.00 0.00 0.00 43 1013.4
20260506153011 53 39 0.9 4.3 0.00 0.00 0.00 49 1013.7
20260506152508 52 168 0.9 2.6 0.00 0.00 0.00 49 1013.6
20260506152006 52 95 1.7 4.3 0.00 0.00 0.00 47 1013.7
20260506151503 53 104 1.7 2.6 0.00 0.00 0.00 46 1013.8
20260506151001 53 155 1.7 2.6 0.00 0.00 0.00 46 1013.6
20260506150457 53 268 2.6 2.6 0.00 0.00 0.00 47 1013.6
20260506145954 53 97 0.9 2.6 0.00 0.00 0.00 46 1013.6
20260506145450 53 42 1.7 1.7 0.00 0.00 0.00 47 1013.7
20260506144948 52 66 0.9 2.6 0.00 0.00 0.00 46 1013.8
20260506144444 52 52 1.7 1.7 0.00 0.00 0.00 47 1013.6
20260506143942 53 61 1.7 2.6 0.00 0.00 0.00 49 1013.6
20260506143439 53 71 0.9 2.6 0.00 0.00 0.00 48 1013.8
20260506142938 52 22 0.9 0.9 0.00 0.00 0.00 49 1013.7
20260506142435 53 357 2.6 5.2 0.00 0.00 0.00 47 1013.8
20260506141933 53 160 1.7 5.2 0.00 0.00 0.00 46 1013.8
20260506141430 53 178 1.7 2.6 0.00 0.00 0.00 48 1013.5
20260506140929 52 100 0.9 4.3 0.00 0.00 0.00 46 1013.7
20260506140426 52 103 0.0 1.7 0.00 0.00 0.00 45 1013.7
20260506135922 51 150 0.9 1.7 0.00 0.00 0.00 49 1013.7
20260506135420 51 160 0.9 1.7 0.00 0.00 0.00 54 1013.6
20260506134915 50 152 0.9 1.7 0.00 0.00 0.00 53 1013.3
20260506134412 50 142 0.9 1.7 0.00 0.00 0.00 54 1013.3
20260506133909 50 114 0.9 1.7 0.00 0.00 0.00 57 1013.2
20260506133406 49 67 0.9 1.7 0.00 0.00 0.00 59 1013.3
20260506132902 48 109 0.0 0.9 0.00 0.00 0.00 62 1013.1
20260506132359 48 91 0.0 0.9 0.00 0.00 0.00 65 1013.1
20260506131858 48 106 0.0 0.9 0.00 0.00 0.00 65 1013.0
20260506131353 47 116 0.0 0.9 0.00 0.00 0.00 65 1013.1
20260506130851 47 122 0.0 0.9 0.00 0.00 0.00 70 1012.9
20260506130347 46 85 0.0 0.9 0.00 0.00 0.00 75 1013.0
20260506125845 46 123 0.0 0.0 0.00 0.00 0.00 75 1012.9
20260506125343 46 94 0.0 0.0 0.00 0.00 0.00 77 1012.8
20260506124841 45 127 0.0 0.0 0.00 0.00 0.00 75 1012.8
20260506124338 45 89 0.0 0.0 0.00 0.00 0.00 77 1012.8
20260506123836 45 88 0.0 0.0 0.00 0.00 0.00 78 1012.6
20260506123334 44 90 0.0 0.0 0.00 0.00 0.00 77 1012.5
20260506122831 44 90 0.0 0.0 0.00 0.00 0.00 75 1012.4
20260506122328 43 90 0.0 0.0 0.00 0.00 0.00 76 1012.6
20260506121826 43 90 0.0 0.0 0.00 0.00 0.00 77 1012.5
20260506121323 42 90 0.0 0.0 0.00 0.00 0.00 79 1012.3
20260506120820 42 91 0.0 0.0 0.00 0.00 0.00 81 1012.3
20260506120318 42 91 0.0 0.0 0.00 0.00 0.00 82 1012.3
20260506115815 41 91 0.0 0.0 0.00 0.00 0.00 84 1012.2